Weather in Bashurovo

Russia / Jewish Autonomous Oblast     48°41′48″N   130°35′43″E
temp.,
°C
wind,
m/s
gust,
m/s
humid.,
%
clouds,
%
prec.,
mm/h
press.,
hPa
HPBL,
m
7 may, fri
fri701:00+7w118773 0.0 100220
04:00+5nnw0094100 0.0 100110
07:00+6n1290100 0.0 100179
10:00+11ene1358100 0.0 1000704
13:00+11sse2367100 1.2 997977
16:00+9ne3889100 6.5 995619
19:00+8nne3894100 6.8 994608
22:00+7ne3992100 10.8 993949
8 may, sat
sat801:00+6ne3990100 0.5 993903
04:00+5nne2694100 1.1 992777
07:00+4nne1396100 0.6 993270
10:00+5ene1594100 1.2 994664
13:00+5e3690100 0.3 995747
16:00+4ene3689100 0.3 995805
19:00+2nne3898100 4.5 997425
22:00+2n2699100 8.4 997403
9 may, sun
sun901:00+3n3698100 3.3 996524
04:00+2nnw3799100 9.1 995454
07:00+3nnw4898100 6.9 996556
10:00+2nnw3798100 12.1 996375
13:00+3nnw2598100 1.6 999464
16:00+3n2598100 3.4 1000536
19:00+3nw2599100 3.2 1002491
22:00+3nw2599100 6.8 1004263
10 may, mon
mon1001:00+4nw1299100 0.9 1006100
04:00+4nnw1199100 1.4 100742
07:00+4n0099100 0.2 100832
10:00+5ssw1196100 0.2 1010173
13:00+6ssw1293100 0.1 1011527
16:00+7wsw1188100 0.2 1011516
19:00+8wnw1185100 0.1 1012252
22:00+6nnw0195100 0.1 101311
11 may, tue
tue1101:00+5sw119796 0.0 101420
04:00+4ssw119865 0.0 101552
07:00+5s1297100 0.0 1015175
10:00+7sse128792 0.0 1015470
13:00+9sse3576100 0.2 1014949
16:00+10se4676100 0.5 10141011
19:00+9sse488387 0.4 1014859
22:00+8ese41188100 0.5 1013529